When you browse on this site, cookies collect data to enhance your experience and personalize the content and advertising you see.
Visit our Privacy Policy to learn more. By continuing to use the site, you agree to this use of cookies and data.

Météo par heure à Pinneberg

Ce jour, 16 Juillet, Jeudi

Heure Température Précipitation Vent Pression Humidité
00:00 +12°C° 0 mm 1 m/s 759 mmHg 95%
01:00 +12°C° 0 mm 1 m/s 759 mmHg 95%
02:00 +11°C° 0 mm 1 m/s 759 mmHg 95%
03:00 +11°C° 0 mm 1 m/s 759 mmHg 95%
04:00 +11°C° 0 mm 1 m/s 759 mmHg 95%
05:00 +12°C° 0 mm 1 m/s 759 mmHg 92%
06:00 +13°C° 0 mm 1 m/s 759 mmHg 89%
07:00 +14°C° 0 mm 1 m/s 760 mmHg 85%
08:00 +16°C° 0 mm 1 m/s 760 mmHg 77%
09:00 +19°C° 0 mm 1 m/s 760 mmHg 69%
10:00 +20°C° 0 mm 1 m/s 760 mmHg 60%
11:00 +21°C° 0.1 mm 1 m/s 760 mmHg 58%
12:00 +21°C° 0.1 mm 1 m/s 760 mmHg 55%
13:00 +22°C° 0.1 mm 1 m/s 760 mmHg 53%
14:00 +21°C° 0.1 mm 2 m/s 760 mmHg 56%
15:00 +21°C° 0.1 mm 2 m/s 760 mmHg 59%
16:00 +20°C° 0.1 mm 2 m/s 760 mmHg 62%
17:00 +20°C° 0.1 mm 2 m/s 760 mmHg 67%
18:00 +19°C° 0.1 mm 2 m/s 760 mmHg 72%
19:00 +19°C° 0.1 mm 2 m/s 760 mmHg 76%
20:00 +18°C° 0 mm 1 m/s 761 mmHg 81%
21:00 +15°C° 0 mm 1 m/s 761 mmHg 86%
22:00 +14°C° 0 mm 1 m/s 761 mmHg 90%
23:00 +13°C° 0 mm 1 m/s 762 mmHg 91%

Demain, 17 Juillet, Vendredi

Heure Température Précipitation Vent Pression Humidité
00:00 +13°C° 0 mm 1 m/s 762 mmHg 92%
01:00 +12°C° 0 mm 1 m/s 762 mmHg 93%
02:00 +12°C° 0 mm 1 m/s 762 mmHg 93%
03:00 +12°C° 0 mm 1 m/s 762 mmHg 92%
04:00 +11°C° 0 mm 1 m/s 762 mmHg 92%
05:00 +13°C° 0 mm 1 m/s 762 mmHg 87%
06:00 +14°C° 0 mm 1 m/s 762 mmHg 83%
07:00 +16°C° 0 mm 1 m/s 762 mmHg 78%
08:00 +18°C° 0 mm 1 m/s 763 mmHg 71%
09:00 +20°C° 0 mm 1 m/s 763 mmHg 63%
10:00 +21°C° 0 mm 1 m/s 763 mmHg 56%
11:00 +22°C° 0 mm 1 m/s 763 mmHg 53%
12:00 +23°C° 0 mm 1 m/s 762 mmHg 50%
13:00 +24°C° 0 mm 1 m/s 762 mmHg 47%
14:00 +24°C° 0 mm 2 m/s 762 mmHg 48%
15:00 +24°C° 0 mm 2 m/s 762 mmHg 49%
16:00 +24°C° 0 mm 2 m/s 762 mmHg 50%
17:00 +23°C° 0 mm 2 m/s 762 mmHg 57%
18:00 +21°C° 0 mm 2 m/s 762 mmHg 63%
19:00 +20°C° 0 mm 2 m/s 762 mmHg 70%
20:00 +19°C° 0 mm 1 m/s 762 mmHg 75%
21:00 +16°C° 0 mm 1 m/s 762 mmHg 80%
22:00 +15°C° 0 mm 1 m/s 762 mmHg 84%
23:00 +14°C° 0 mm 1 m/s 762 mmHg 85%

Après-demain, 18 Juillet, Samedi

Heure Température Précipitation Vent Pression Humidité
00:00 +13°C° 0 mm 0 m/s 762 mmHg 87%
01:00 +13°C° 0 mm 0 m/s 762 mmHg 88%
02:00 +12°C° 0 mm 0 m/s 762 mmHg 88%
03:00 +12°C° 0 mm 0 m/s 762 mmHg 89%
04:00 +12°C° 0 mm 0 m/s 762 mmHg 89%
05:00 +14°C° 0 mm 0 m/s 762 mmHg 85%
06:00 +16°C° 0 mm 1 m/s 762 mmHg 81%
07:00 +18°C° 0 mm 1 m/s 762 mmHg 77%
08:00 +20°C° 0 mm 1 m/s 762 mmHg 72%
09:00 +22°C° 0 mm 1 m/s 762 mmHg 67%
10:00 +23°C° 0 mm 1 m/s 762 mmHg 61%
11:00 +24°C° 0 mm 1 m/s 761 mmHg 60%
12:00 +25°C° 0 mm 1 m/s 761 mmHg 59%
13:00 +25°C° 0 mm 1 m/s 761 mmHg 57%
14:00 +25°C° 0.2 mm 1 m/s 761 mmHg 58%
15:00 +25°C° 0.2 mm 1 m/s 761 mmHg 59%
16:00 +26°C° 0.2 mm 1 m/s 760 mmHg 60%
17:00 +25°C° 0.1 mm 1 m/s 760 mmHg 65%
18:00 +24°C° 0.1 mm 1 m/s 760 mmHg 71%
19:00 +24°C° 0.1 mm 1 m/s 760 mmHg 76%
20:00 +22°C° 0 mm 1 m/s 760 mmHg 79%
21:00 +21°C° 0 mm 1 m/s 760 mmHg 82%
22:00 +18°C° 0 mm 2 m/s 760 mmHg 85%
23:00 +18°C° 0 mm 2 m/s 760 mmHg 86%

19 Juillet, Dimanche

Heure Température Précipitation Vent Pression Humidité
00:00 +17°C° 0 mm 2 m/s 760 mmHg 87%
01:00 +17°C° 0 mm 2 m/s 760 mmHg 88%
02:00 +16°C° 0 mm 2 m/s 760 mmHg 88%
03:00 +16°C° 0 mm 2 m/s 759 mmHg 88%
04:00 +16°C° 0 mm 2 m/s 759 mmHg 88%
05:00 +17°C° 0 mm 2 m/s 759 mmHg 85%
06:00 +18°C° 0 mm 2 m/s 759 mmHg 82%
07:00 +19°C° 0 mm 2 m/s 759 mmHg 78%
08:00 +21°C° 0 mm 2 m/s 758 mmHg 73%
09:00 +24°C° 0 mm 2 m/s 758 mmHg 68%
10:00 +25°C° 0 mm 3 m/s 758 mmHg 63%
11:00 +26°C° 0.2 mm 3 m/s 758 mmHg 62%
12:00 +26°C° 0.2 mm 3 m/s 758 mmHg 61%
13:00 +26°C° 0.2 mm 3 m/s 758 mmHg 60%
14:00 +26°C° 0.2 mm 3 m/s 757 mmHg 62%
15:00 +26°C° 0.2 mm 3 m/s 757 mmHg 65%
16:00 +25°C° 0.2 mm 2 m/s 757 mmHg 67%
17:00 +24°C° 0.6 mm 2 m/s 757 mmHg 74%
18:00 +23°C° 0.6 mm 2 m/s 757 mmHg 82%
19:00 +20°C° 0.6 mm 2 m/s 757 mmHg 89%
20:00 +19°C° 0.1 mm 2 m/s 757 mmHg 91%
21:00 +18°C° 0.1 mm 2 m/s 757 mmHg 93%
22:00 +17°C° 0.1 mm 2 m/s 758 mmHg 96%
23:00 +17°C° 0.4 mm 2 m/s 757 mmHg 96%

20 Juillet, Lundi

Heure Température Précipitation Vent Pression Humidité
00:00 +17°C° 0.4 mm 2 m/s 757 mmHg 97%
01:00 +17°C° 0.4 mm 2 m/s 757 mmHg 98%
02:00 +16°C° 0.1 mm 3 m/s 757 mmHg 97%
03:00 +16°C° 0.1 mm 3 m/s 757 mmHg 96%
04:00 +15°C° 0.1 mm 4 m/s 758 mmHg 96%
05:00 +14°C° 0 mm 4 m/s 758 mmHg 94%
06:00 +14°C° 0 mm 4 m/s 758 mmHg 92%
07:00 +13°C° 0 mm 4 m/s 758 mmHg 91%
08:00 +14°C° 0 mm 4 m/s 759 mmHg 84%
09:00 +15°C° 0 mm 4 m/s 759 mmHg 78%
10:00 +18°C° 0 mm 4 m/s 760 mmHg 71%
11:00 +18°C° 0.1 mm 4 m/s 760 mmHg 66%
12:00 +19°C° 0.1 mm 5 m/s 760 mmHg 60%
13:00 +20°C° 0.1 mm 6 m/s 760 mmHg 55%
14:00 +19°C° 0 mm 5 m/s 760 mmHg 55%
15:00 +19°C° 0 mm 5 m/s 760 mmHg 56%
16:00 +19°C° 0 mm 5 m/s 760 mmHg 56%
17:00 +18°C° 0 mm 4 m/s 760 mmHg 61%
18:00 +17°C° 0 mm 4 m/s 760 mmHg 65%
19:00 +17°C° 0 mm 3 m/s 760 mmHg 70%
20:00 +15°C° 0 mm 2 m/s 761 mmHg 76%
21:00 +14°C° 0 mm 2 m/s 761 mmHg 82%
22:00 +12°C° 0 mm 2 m/s 761 mmHg 88%
23:00 +12°C° 0 mm 2 m/s 761 mmHg 90%

21 Juillet, Mardi

Heure Température Précipitation Vent Pression Humidité
00:00 +10°C° 0 mm 2 m/s 761 mmHg 93%
01:00 +10°C° 0 mm 2 m/s 761 mmHg 95%
02:00 +10°C° 0 mm 2 m/s 761 mmHg 95%
03:00 +10°C° 0 mm 2 m/s 761 mmHg 95%
04:00 +9°C° 0 mm 2 m/s 761 mmHg 96%
05:00 +10°C° 0.1 mm 3 m/s 761 mmHg 92%
06:00 +11°C° 0.1 mm 3 m/s 762 mmHg 88%
07:00 +12°C° 0.1 mm 3 m/s 762 mmHg 83%
08:00 +13°C° 0.2 mm 3 m/s 762 mmHg 81%
09:00 +14°C° 0.2 mm 4 m/s 762 mmHg 78%
10:00 +15°C° 0.2 mm 4 m/s 762 mmHg 76%
11:00 +17°C° 0.2 mm 4 m/s 762 mmHg 72%
12:00 +17°C° 0.2 mm 4 m/s 762 mmHg 68%
13:00 +17°C° 0.2 mm 5 m/s 762 mmHg 63%
14:00 +17°C° 0 mm 5 m/s 762 mmHg 61%
15:00 +17°C° 0 mm 5 m/s 762 mmHg 58%
16:00 +17°C° 0 mm 6 m/s 762 mmHg 56%
17:00 +16°C° 0 mm 5 m/s 762 mmHg 60%
18:00 +15°C° 0 mm 5 m/s 762 mmHg 65%
19:00 +14°C° 0 mm 4 m/s 762 mmHg 69%
20:00 +13°C° 0 mm 4 m/s 763 mmHg 75%
21:00 +11°C° 0 mm 3 m/s 763 mmHg 81%
22:00 +10°C° 0 mm 3 m/s 763 mmHg 87%
23:00 +10°C° 0 mm 2 m/s 763 mmHg 88%
Voir plus